Вернуться в каталог

IUE DEB

LostHEO
NORAD 33000·DEBRIS·🇺🇸 United States

Запущен Jan 26, 1978 с Cape Canaveral Space Force Station

Loading…

Ближайшие Пролёты (ближайшие 24 часа)

TLE

УстаревшееSource: Space-Track

Эпоха: Jan 16, 2024, 14:12 UTC

1 33000U 78012D   24016.59218522 -.00000025  00000-0  00000+0 0  9998
2 33000  39.1397 292.0517 3087814 277.5914 296.1444  1.00380973 58534

Отслеживайте IUE DEB в реальном времени с AllMySat

Download on the App Store